Regional Weather Roundup
Issued by NWS

Home | Current Version | Previous Version | Text Only | Print | Product List | Glossary Off
Versions: 1 2 3 4 5 6 7 8 9 10 11 12 13 14 15 16 17 18 19 20 21 22 23 24 25 26 27 28 29 30 31 32 33 34 35 36 37 38 39 40 41 42 43 44 45 46 47 48 49 50

000
ASUS45 KPSR 310910
RWRAZ

ARIZONA HOURLY REGIONAL WEATHER ROUNDUP
NATIONAL WEATHER SERVICE PHOENIX AZ
200 AM MST MON AUG 31 2015

NOTE: FAIR INDICATES FEW OR NO CLOUDS BELOW 12,000 FEET WITH NO
SIGNIFICANT WEATHER AND/OR OBSTRUCTIONS TO VISIBILITY.

AZZ001>003-036-311000-
NORTHWEST ARIZONA

CITY           SKY/WX    TMP DP  RH WIND       PRES   REMARKS
BULLHEAD CITY  CLEAR     90  39  17 E3        29.72S
KINGMAN        CLEAR     78  39  24 S10       29.94F
$$

AZZ004>008-015-016-018-311000-
NORTH CENTRAL ARIZONA

CITY           SKY/WX    TMP DP  RH WIND       PRES   REMARKS
GRAND CANYON     N/A    N/A N/A N/A MISG      30.23S
WILLIAMS       MOCLDY    59  54  82 SE9       30.28S
PRESCOTT       PTCLDY    67  57  70 NE3       30.11S
FLAGSTAFF      MOCLDY    54  54 100 CALM      30.29S
PAYSON         LGT RAIN  72  55  56 N3        30.14F
PAGE           CLEAR     69  57  65 CALM      30.07F
$$

AZZ009>014-017-311000-
NORTHEAST ARIZONA

CITY           SKY/WX    TMP DP  RH WIND       PRES   REMARKS
WINSLOW        LGT RAIN  63  61  93 SW8       30.16R
SAINT JOHNS    PTCLDY    63  54  72 NE5       30.19F
WINDOW ROCK    MOCLDY    61  50  67 NW5       30.26F
SHOW LOW       PTCLDY    57  54  88 CALM      30.26F
$$

AZZ023-311000-
GREATER PHOENIX AREA

CITY           SKY/WX    TMP DP  RH WIND       PRES   REMARKS
PHOENIX        PTCLDY    88  65  46 SE6       29.81R
BUCKEYE        CLEAR     86  63  45 E8        29.80R
LUKE AFB       CLEAR     90  64  42 E7        29.79S
DEER VALLEY    CLEAR     88  62  41 S7        29.83R
SCOTTSDALE     PTCLDY    88  64  44 CALM      29.85R
MESA-GATEWAY   PTCLDY    82  66  57 E5        29.85S
$$

AZZ027-028-311000-
SOUTHWEST MARICOPA COUNTY AND PINAL COUNTY

CITY           SKY/WX    TMP DP  RH WIND       PRES   REMARKS
CASA GRANDE    CLEAR     84  63  48 CALM      29.83S
GILA BEND      FAIR      90  62  38 SW5       29.78S
$$

AZZ503-504-507>509-311000-
SOUTHEAST ARIZONA

CITY           SKY/WX    TMP DP  RH WIND       PRES   REMARKS
TUCSON         PTCLDY    79  62  56 SE10      29.97S
DAVIS-MONTHAN  CLEAR     76  64  66 S9        29.96R
NOGALES        PTCLDY    63  58  83 E5        30.06S
SIERRA VISTA   PTCLDY    71  55  57 S5        30.11S
DOUGLAS        PTCLDY    66  63  90 NE3       30.08S
SAFFORD        MOCLDY    79  58  48 SW5       29.97R
$$

AZZ020-021-025-026-031-311000-
SOUTHWEST ARIZONA

CITY           SKY/WX    TMP DP  RH WIND       PRES   REMARKS
YUMA           CLEAR     89  51  27 SE6       29.72S
$$

CAZ031-033-041-043-047-048-061-311000-
SOUTHERN CALIFORNIA

CITY           SKY/WX    TMP DP  RH WIND       PRES   REMARKS
DOWNTOWN L.A.  CLEAR     71  63  75 CALM      29.84F
L.A. AIRPORT   PTCLDY    70  64  81 CALM      29.84F
SAN DIEGO      MOCLDY    70  63  78 CALM      29.87F
BURBANK        PTCLDY    73  60  63 E3        29.85F
ONTARIO        PTCLDY    71  60  68 CALM      29.86S
RIVERSIDE      CLEAR     72  59  63 N3        29.86F
PALM SPRINGS   CLEAR     88  55  32 CALM      29.73F
EL CENTRO NAS  PTCLDY    88  41  19 SW8       29.72R
IMPERIAL       MOCLDY    86  45  23 W8        29.69S
BLYTHE         MOCLDY    91  48  22 S13       29.71S
NEEDLES        CLEAR     92  41  17 SW9       29.73S
$$

NVZ020-UTZ003-311000-
SOUTHERN NEVADA-UTAH

CITY           SKY/WX    TMP DP  RH WIND       PRES   REMARKS
LAS VEGAS      PTCLDY    85  43  22 S6        29.78S
SALT LAKE CITY MOCLDY    68  45  43 NW5       30.01R
$$

NMZ009-TXZ055-311000-
NEW MEXICO-WEST TEXAS

CITY           SKY/WX    TMP DP  RH WIND       PRES   REMARKS
ALBUQUERQUE    CLEAR     72  49  44 W6        30.13F
EL PASO        CLEAR     74  49  41 SE6       30.03F
$$


........................KEY........................
SKY/WX - SKY CONDITION/WEATHER
TMP    - TEMPERATURE IN FAHRENHEIT
DP     - DEW POINT IN FAHRENHEIT
RH     - RELATIVE HUMIDITY IN PERCENT
WIND   - DIRECTION AND SPEED IN MILES PER HOUR (MPH)
VRB    - VARIABLE WIND DIRECTION
PRES   - MEAN SEA LEVEL PRESSURE IN INCHES OF MERCURY
         F - FALLING PRESSURE   R - RISING PRESSURE
         S - STEADY PRESSURE
VSB    - VISIBILITY IN MILES
HX     - HEAT INDEX IN FAHRENHEIT
WCI    - WIND CHILL INDEX IN FAHRENHEIT
TC     - TEMPERATURE IN CELSIUS WHICH IS ALSO KNOWN AS
         TEMPERATURE IN CENTIGRADE
AFB    - AIR FORCE BASE
         LUKE AFB IS LUKE AIR FORCE BASE
         DAVIS-MONTHAN IS DAVIS-MONTHAN AIR FORCE BASE
NAS    - NAVAL AIR STATION
         EL CENTRO NAS IS EL CENTRO NAVAL AIR STATION
N/A    - NOT AVAILABLE



USA.gov is the U.S. government's official web portal to all federal, state and local government web resources and services.